Oakland, CA

6:54 AM PST on November 22, 2017 (GMT -0800)
Metro Oakland International

Weather History for KOAK - November, 2013

Change the Weather History Date:

Saturday, November 2, 2013

  Actual Average Record
Temperature  
Mean Temperature 54 °F 58 °F  
Max Temperature 63 °F 67 °F 79 °F (1997)
Min Temperature 45 °F 48 °F 39 °F (1973)
Degree Days  
Heating Degree Days 11 8  
Month to date heating degree days 17 15  
Since 1 July heating degree days 289 367  
Cooling Degree Days 0 0  
Month to date cooling degree days 0 0  
Year to date cooling degree days 212 137  
Growing Degree Days 4 (Base 50)    
Moisture  
Dew Point 51 °F    
Average Humidity 83    
Maximum Humidity 100    
Minimum Humidity 66    
Precipitation  
Precipitation 0.01 in 0.09 in 0.58 in (1968)
Month to date precipitation 0.01 0.17  
Year to date precipitation 3.45 14.87  
Since 1 July precipitation 0.63  
Sea Level Pressure  
Sea Level Pressure 29.99 in    
Wind  
Wind Speed 5 mph (WNW)    
Max Wind Speed 15 mph    
Max Gust Speed 18 mph    
Visibility 10 miles    
Events      
T = Trace of Precipitation, MM = Missing Value Source: NWS Daily Summary

Daily Weather History Graph

Daily Weather History Graph

Search for Another Location

Airport or City:

Trip Planner

Search our weather history database for the weather conditions in past years. The results will help you decide how hot, cold, wet, or windy it might be!

Date:

Astronomy

Nov. 02, 2013 Rise Set
Actual Time 7:35 AM PDT 6:08 PM PDT
Civil Twilight 7:08 AM PDT 6:36 PM PDT
Nautical Twilight 6:37 AM PDT 7:07 PM PDT
Astronomical Twilight 6:06 AM PDT 7:37 PM PDT
Moon 6:39 AM PDT (11/2) 5:43 PM PDT (11/2)
Length of Visible Light 11h 27m
Length of Day
10h 33m
Waning Crescent, 1% of the Moon is Illuminated
Nov 2
Waning Crescent
Nov 3
New
Nov 9
First Quarter
Nov 17
Full
Nov 25
Last Quarter

Hourly Weather History & Observations

Time (PDT) Temp. Dew Point Humidity Pressure Visibility Wind Dir Wind Speed Gust Speed Precip Events Conditions
12:53 AM 52.0 °F 48.2 °F 87% 30.03 in 10.0 mi Calm Calm - N/A   Clear
1:53 AM 50.0 °F 47.8 °F 92% 30.03 in 10.0 mi Calm Calm - N/A   Clear
2:53 AM 50.0 °F 48.0 °F 93% 30.03 in 10.0 mi Calm Calm - N/A   Clear
3:53 AM 48.0 °F 45.3 °F 90% 30.01 in 10.0 mi ENE 3.5 mph - N/A   Clear
4:53 AM 51.1 °F 47.3 °F 87% 30.01 in 10.0 mi Calm Calm - N/A   Clear
5:53 AM 46.9 °F 46.4 °F 98% 30.01 in 10.0 mi Calm Calm - N/A   Clear
6:53 AM 50.0 °F 50.0 °F 100% 30.02 in 10.0 mi NW 4.6 mph - N/A   Clear
7:53 AM 51.1 °F 46.4 °F 84% 30.03 in 9.0 mi NW 8.1 mph - 0.01 in   Scattered Clouds
8:33 AM 51.8 °F 46.4 °F 82% 30.03 in 8.0 mi NW 6.9 mph - N/A   Mostly Cloudy
8:51 AM 51.8 °F 46.4 °F 82% 30.04 in 10.0 mi NNW 3.5 mph - N/A   Scattered Clouds
8:53 AM 52.0 °F 46.4 °F 81% 30.04 in 10.0 mi NNW 3.5 mph - N/A   Scattered Clouds
9:53 AM 58.3 °F 55.0 °F 89% 30.03 in 10.0 mi WSW 5.8 mph - N/A   Scattered Clouds
10:53 AM 59.5 °F 52.2 °F 77% 30.03 in 10.0 mi WNW 8.1 mph - N/A   Scattered Clouds
11:53 AM 57.0 °F 48.7 °F 74% 30.02 in 10.0 mi West 6.9 mph - N/A   Mostly Cloudy
12:53 PM 60.1 °F 55.0 °F 83% 30.00 in 10.0 mi West 8.1 mph - N/A   Mostly Cloudy
1:53 PM 61.0 °F 55.9 °F 83% 29.98 in 10.0 mi West 8.1 mph - N/A   Mostly Cloudy
2:53 PM 63.0 °F 55.9 °F 78% 29.96 in 10.0 mi West 8.1 mph - N/A   Mostly Cloudy
3:53 PM 62.1 °F 59.0 °F 90% 29.96 in 10.0 mi West 9.2 mph - N/A   Mostly Cloudy
4:53 PM 61.0 °F 60.1 °F 97% 29.95 in 10.0 mi West 8.1 mph - N/A   Mostly Cloudy
5:53 PM 60.1 °F 60.1 °F 100% 29.93 in 10.0 mi West 10.4 mph - N/A   Scattered Clouds
6:53 PM 59.0 °F 59.0 °F 100% 29.93 in 10.0 mi West 8.1 mph - N/A   Scattered Clouds
7:53 PM 57.0 °F 55.0 °F 93% 29.94 in 10.0 mi West 6.9 mph - N/A   Partly Cloudy
8:53 PM 55.9 °F 55.0 °F 97% 29.94 in 10.0 mi West 4.6 mph - N/A   Clear
9:53 PM 50.0 °F 50.0 °F 100% 29.95 in 10.0 mi ENE 3.5 mph - N/A   Clear
10:53 PM 59.5 °F 48.0 °F 66% 29.97 in 10.0 mi NE 3.5 mph - N/A   Clear
11:53 PM 54.0 °F 42.1 °F 64% 29.98 in 10.0 mi Calm Calm - N/A   Clear